Year,Month,Day,Hour,Minute,Value (Times are PST for temperature in C)
2012,09,24,00,00,8.60
2012,09,24,00,01,8.60
2012,09,24,00,02,8.60
2012,09,24,00,03,8.50
2012,09,24,00,04,8.50
2012,09,24,00,05,8.50
2012,09,24,00,06,8.50
2012,09,24,00,07,8.50
2012,09,24,00,08,8.50
2012,09,24,00,09,8.50
2012,09,24,00,10,8.50
2012,09,24,00,11,8.50
2012,09,24,00,12,8.50
2012,09,24,00,13,8.60
2012,09,24,00,14,8.60
2012,09,24,00,15,8.60
2012,09,24,00,16,8.60
2012,09,24,00,17,8.60
2012,09,24,00,18,8.60
2012,09,24,00,19,8.60
2012,09,24,00,20,8.70
2012,09,24,00,21,8.70
2012,09,24,00,22,8.70
2012,09,24,00,23,8.70
2012,09,24,00,24,8.70
2012,09,24,00,25,8.70
2012,09,24,00,26,8.70
2012,09,24,00,27,8.70
2012,09,24,00,28,8.70
2012,09,24,00,29,8.70
2012,09,24,00,30,8.70
2012,09,24,00,31,8.70
2012,09,24,00,32,8.80
2012,09,24,00,33,8.80
2012,09,24,00,34,8.80
2012,09,24,00,35,8.80
2012,09,24,00,36,8.80
2012,09,24,00,37,8.80
2012,09,24,00,38,8.80
2012,09,24,00,39,8.80
2012,09,24,00,40,8.80
2012,09,24,00,41,8.80
2012,09,24,00,42,8.90
2012,09,24,00,43,8.90
2012,09,24,00,44,8.90
2012,09,24,00,45,8.90
2012,09,24,00,46,8.90
2012,09,24,00,47,8.90
2012,09,24,00,48,8.90
2012,09,24,00,49,8.80
2012,09,24,00,50,8.80
2012,09,24,00,51,8.80
2012,09,24,00,52,8.80
2012,09,24,00,53,8.80
2012,09,24,00,54,8.80
2012,09,24,00,55,8.80
2012,09,24,00,56,8.80
2012,09,24,00,57,8.80
2012,09,24,00,58,8.70
2012,09,24,00,59,8.70
2012,09,24,01,00,8.70
2012,09,24,01,01,8.70
2012,09,24,01,02,8.70
2012,09,24,01,03,8.70
2012,09,24,01,04,8.70
2012,09,24,01,05,8.70
2012,09,24,01,06,8.70
2012,09,24,01,07,8.70
2012,09,24,01,08,8.70
2012,09,24,01,09,8.70
2012,09,24,01,10,8.70
2012,09,24,01,11,8.60
2012,09,24,01,12,8.60
2012,09,24,01,13,8.70
2012,09,24,01,14,8.70
2012,09,24,01,15,8.70
2012,09,24,01,16,8.70
2012,09,24,01,17,8.70
2012,09,24,01,18,8.70
2012,09,24,01,19,8.70
2012,09,24,01,20,8.70
2012,09,24,01,21,8.70
2012,09,24,01,22,8.70
2012,09,24,01,23,8.70
2012,09,24,01,24,8.70
2012,09,24,01,25,8.70
2012,09,24,01,26,8.60
2012,09,24,01,27,8.70
2012,09,24,01,28,8.70
2012,09,24,01,29,8.70
2012,09,24,01,30,8.70
2012,09,24,01,31,8.70
2012,09,24,01,32,8.70
2012,09,24,01,33,8.70
2012,09,24,01,34,8.70
2012,09,24,01,35,8.70
2012,09,24,01,36,8.70
2012,09,24,01,37,8.70
2012,09,24,01,38,8.70
2012,09,24,01,39,8.70
2012,09,24,01,40,8.70
2012,09,24,01,41,8.70
2012,09,24,01,42,8.70
2012,09,24,01,43,8.70
2012,09,24,01,44,8.70
2012,09,24,01,45,8.70
2012,09,24,01,46,8.70
2012,09,24,01,47,8.70
2012,09,24,01,48,8.70
2012,09,24,01,49,8.70
2012,09,24,01,50,8.70
2012,09,24,01,51,8.70
2012,09,24,01,52,8.70
2012,09,24,01,53,8.80
2012,09,24,01,54,8.80
2012,09,24,01,55,8.80
2012,09,24,01,56,8.80
2012,09,24,01,57,8.80
2012,09,24,01,58,8.70
2012,09,24,01,59,8.70
2012,09,24,02,00,8.70
2012,09,24,02,01,8.70
2012,09,24,02,02,8.70
2012,09,24,02,03,8.70
2012,09,24,02,04,8.70
2012,09,24,02,05,8.70
2012,09,24,02,06,8.70
2012,09,24,02,07,8.70
2012,09,24,02,08,8.70
2012,09,24,02,09,8.70
2012,09,24,02,10,8.70
2012,09,24,02,11,8.70
2012,09,24,02,12,8.70
2012,09,24,02,13,8.70
2012,09,24,02,14,8.70
2012,09,24,02,15,8.70
2012,09,24,02,16,8.60
2012,09,24,02,17,8.60
2012,09,24,02,18,8.60
2012,09,24,02,19,8.70
2012,09,24,02,20,8.70
2012,09,24,02,21,8.70
2012,09,24,02,22,8.70
2012,09,24,02,23,8.70
2012,09,24,02,24,8.60
2012,09,24,02,25,8.60
2012,09,24,02,26,8.60
2012,09,24,02,27,8.60
2012,09,24,02,28,8.70
2012,09,24,02,29,8.70
2012,09,24,02,30,8.70
2012,09,24,02,31,8.70
2012,09,24,02,32,8.70
2012,09,24,02,33,8.60
2012,09,24,02,34,8.60
2012,09,24,02,35,8.60
2012,09,24,02,36,8.70
2012,09,24,02,37,8.70
2012,09,24,02,38,8.70
2012,09,24,02,39,8.70
2012,09,24,02,40,8.70
2012,09,24,02,41,8.70
2012,09,24,02,42,8.70
2012,09,24,02,43,8.70
2012,09,24,02,44,8.70
2012,09,24,02,45,8.70
2012,09,24,02,46,8.70
2012,09,24,02,47,8.70
2012,09,24,02,48,8.60
2012,09,24,02,49,8.70
2012,09,24,02,50,8.60
2012,09,24,02,51,8.60
2012,09,24,02,52,8.60
2012,09,24,02,53,8.60
2012,09,24,02,54,8.60
2012,09,24,02,55,8.70
2012,09,24,02,56,8.60
2012,09,24,02,57,8.60
2012,09,24,02,58,8.60
2012,09,24,02,59,8.60
2012,09,24,03,00,8.50
2012,09,24,03,01,8.60
2012,09,24,03,02,8.60
2012,09,24,03,03,8.60
2012,09,24,03,04,8.60
2012,09,24,03,05,8.60
2012,09,24,03,06,8.60
2012,09,24,03,07,8.60
2012,09,24,03,08,8.60
2012,09,24,03,09,8.50
2012,09,24,03,10,8.50
2012,09,24,03,11,8.50
2012,09,24,03,12,8.50
2012,09,24,03,13,8.50
2012,09,24,03,14,8.50
2012,09,24,03,15,8.50
2012,09,24,03,16,8.50
2012,09,24,03,17,8.50
2012,09,24,03,18,8.50
2012,09,24,03,19,8.40
2012,09,24,03,20,8.40
2012,09,24,03,21,8.40
2012,09,24,03,22,8.30
2012,09,24,03,23,8.30
2012,09,24,03,24,8.30
2012,09,24,03,25,8.20
2012,09,24,03,26,8.20
2012,09,24,03,27,8.20
2012,09,24,03,28,8.20
2012,09,24,03,29,8.20
2012,09,24,03,30,8.20
2012,09,24,03,31,8.20
2012,09,24,03,32,8.20
2012,09,24,03,33,8.20
2012,09,24,03,34,8.20
2012,09,24,03,35,8.20
2012,09,24,03,36,8.20
2012,09,24,03,37,8.20
2012,09,24,03,38,8.20
2012,09,24,03,39,8.20
2012,09,24,03,40,8.20
2012,09,24,03,41,8.20
2012,09,24,03,42,8.20
2012,09,24,03,43,8.20
2012,09,24,03,44,8.20
2012,09,24,03,45,8.20
2012,09,24,03,46,8.20
2012,09,24,03,47,8.10
2012,09,24,03,48,8.10
2012,09,24,03,49,8.10
2012,09,24,03,50,8.10
2012,09,24,03,51,8.10
2012,09,24,03,52,8.10
2012,09,24,03,53,8.10
2012,09,24,03,54,8.10
2012,09,24,03,55,8.10
2012,09,24,03,56,8.10
2012,09,24,03,57,8.10
2012,09,24,03,58,8.10
2012,09,24,03,59,8.10
2012,09,24,04,00,8.10
2012,09,24,04,01,8.10
2012,09,24,04,02,8.10
2012,09,24,04,03,8.10
2012,09,24,04,04,8.10
2012,09,24,04,05,8.10
2012,09,24,04,06,8.00
2012,09,24,04,07,8.10
2012,09,24,04,08,8.10
2012,09,24,04,09,8.10
2012,09,24,04,10,8.10
2012,09,24,04,11,8.10
2012,09,24,04,12,8.20
2012,09,24,04,13,8.20
2012,09,24,04,14,8.20
2012,09,24,04,15,8.30
2012,09,24,04,16,8.30
2012,09,24,04,17,8.30
2012,09,24,04,18,8.30
2012,09,24,04,19,8.30
2012,09,24,04,20,8.40
2012,09,24,04,21,8.40
2012,09,24,04,22,8.40
2012,09,24,04,23,8.40
2012,09,24,04,24,8.40
2012,09,24,04,25,8.40
2012,09,24,04,26,8.40
2012,09,24,04,27,8.40
2012,09,24,04,28,8.40
2012,09,24,04,29,8.40
2012,09,24,04,30,8.40
2012,09,24,04,31,8.40
2012,09,24,04,32,8.30
2012,09,24,04,33,8.30
2012,09,24,04,34,8.30
2012,09,24,04,35,8.30
2012,09,24,04,36,8.30
2012,09,24,04,37,8.30
2012,09,24,04,38,8.30
2012,09,24,04,39,8.30
2012,09,24,04,40,8.30
2012,09,24,04,41,8.30
2012,09,24,04,42,8.30
2012,09,24,04,43,8.30
2012,09,24,04,44,8.30
2012,09,24,04,45,8.30
2012,09,24,04,46,8.30
2012,09,24,04,47,8.30
2012,09,24,04,48,8.30
2012,09,24,04,49,8.30
2012,09,24,04,50,8.30
2012,09,24,04,51,8.20
2012,09,24,04,52,8.20
2012,09,24,04,53,8.20
2012,09,24,04,54,8.20
2012,09,24,04,55,8.20
2012,09,24,04,56,8.20
2012,09,24,04,57,8.10
2012,09,24,04,58,8.10
2012,09,24,04,59,8.10
2012,09,24,05,00,8.10
2012,09,24,05,01,8.10
2012,09,24,05,02,8.10
2012,09,24,05,03,8.00
2012,09,24,05,04,8.00
2012,09,24,05,05,8.10
2012,09,24,05,06,8.10
2012,09,24,05,07,8.10
2012,09,24,05,08,8.20
2012,09,24,05,09,8.20
2012,09,24,05,10,8.20
2012,09,24,05,11,8.10
2012,09,24,05,12,8.10
2012,09,24,05,13,8.10
2012,09,24,05,14,8.10
2012,09,24,05,15,8.00
2012,09,24,05,16,8.00
2012,09,24,05,17,8.00
2012,09,24,05,18,8.00
2012,09,24,05,19,8.00
2012,09,24,05,20,7.90
2012,09,24,05,21,7.90
2012,09,24,05,22,7.90
2012,09,24,05,23,7.90
2012,09,24,05,24,7.90
2012,09,24,05,25,7.90
2012,09,24,05,26,7.90
2012,09,24,05,27,7.90
2012,09,24,05,28,7.80
2012,09,24,05,29,7.80
2012,09,24,05,30,7.80
2012,09,24,05,31,7.80
2012,09,24,05,32,7.80
2012,09,24,05,33,7.80
2012,09,24,05,34,7.80
2012,09,24,05,35,7.80
2012,09,24,05,36,7.80
2012,09,24,05,37,7.80
2012,09,24,05,38,7.80
2012,09,24,05,39,7.80
2012,09,24,05,40,7.80
2012,09,24,05,41,7.80
2012,09,24,05,42,7.80
2012,09,24,05,43,7.80
2012,09,24,05,44,7.80
2012,09,24,05,45,7.80
2012,09,24,05,46,7.80
2012,09,24,05,47,7.80
2012,09,24,05,48,7.80
2012,09,24,05,49,7.80
2012,09,24,05,50,7.80
2012,09,24,05,51,7.80
2012,09,24,05,52,7.80
2012,09,24,05,53,7.80
2012,09,24,05,54,7.90
2012,09,24,05,55,7.90
2012,09,24,05,56,8.00
2012,09,24,05,57,8.00
2012,09,24,05,58,8.00
2012,09,24,05,59,8.00
2012,09,24,06,00,8.00
2012,09,24,06,01,8.00
2012,09,24,06,02,8.00
2012,09,24,06,03,8.00
2012,09,24,06,04,7.90
2012,09,24,06,05,8.00
2012,09,24,06,06,8.00
2012,09,24,06,07,8.00
2012,09,24,06,08,8.00
2012,09,24,06,09,8.10
2012,09,24,06,10,8.00
2012,09,24,06,11,8.00
2012,09,24,06,12,8.00
2012,09,24,06,13,7.90
2012,09,24,06,14,7.90
2012,09,24,06,15,7.90
2012,09,24,06,16,7.90
2012,09,24,06,17,7.80
2012,09,24,06,18,7.80
2012,09,24,06,19,7.80
2012,09,24,06,20,7.80
2012,09,24,06,21,7.70
2012,09,24,06,22,7.70
2012,09,24,06,23,7.70
2012,09,24,06,24,7.70
2012,09,24,06,25,7.70
2012,09,24,06,26,7.70
2012,09,24,06,27,7.70
2012,09,24,06,28,7.80
2012,09,24,06,29,7.80
2012,09,24,06,30,7.80
2012,09,24,06,31,7.80
2012,09,24,06,32,7.80
2012,09,24,06,33,7.80
2012,09,24,06,34,7.80
2012,09,24,06,35,7.80
2012,09,24,06,36,7.80
2012,09,24,06,37,7.70
2012,09,24,06,38,7.70
2012,09,24,06,39,7.70
2012,09,24,06,40,7.70
2012,09,24,06,41,7.70
2012,09,24,06,42,7.70
2012,09,24,06,43,7.70
2012,09,24,06,44,7.60
2012,09,24,06,45,7.60
2012,09,24,06,46,7.60
2012,09,24,06,47,7.50
2012,09,24,06,48,7.50
2012,09,24,06,49,7.50
2012,09,24,06,50,7.50
2012,09,24,06,51,7.50
2012,09,24,06,52,7.40
2012,09,24,06,53,7.40
2012,09,24,06,54,7.40
2012,09,24,06,55,7.40
2012,09,24,06,56,7.50
2012,09,24,06,57,7.50
2012,09,24,06,58,7.50
2012,09,24,06,59,7.60
2012,09,24,07,00,7.70
2012,09,24,07,01,7.70
2012,09,24,07,02,7.80
2012,09,24,07,03,7.80
2012,09,24,07,04,7.80
2012,09,24,07,05,7.80
2012,09,24,07,06,7.80
2012,09,24,07,07,7.80
2012,09,24,07,08,7.80
2012,09,24,07,09,7.80
2012,09,24,07,10,7.80
2012,09,24,07,11,7.80
2012,09,24,07,12,7.80
2012,09,24,07,13,7.80
2012,09,24,07,14,7.80
2012,09,24,07,15,7.80
2012,09,24,07,16,7.80
2012,09,24,07,17,7.80
2012,09,24,07,18,7.70
2012,09,24,07,19,7.70
2012,09,24,07,20,7.70
2012,09,24,07,21,7.70
2012,09,24,07,22,7.70
2012,09,24,07,23,7.80
2012,09,24,07,24,7.80
2012,09,24,07,25,7.80
2012,09,24,07,26,7.80
2012,09,24,07,27,7.90
2012,09,24,07,28,7.90
2012,09,24,07,29,7.90
2012,09,24,07,30,7.90
2012,09,24,07,31,7.90
2012,09,24,07,32,7.90
2012,09,24,07,33,7.90
2012,09,24,07,34,7.90
2012,09,24,07,35,7.80
2012,09,24,07,36,7.80
2012,09,24,07,37,7.80
2012,09,24,07,38,7.80
2012,09,24,07,39,7.90
2012,09,24,07,40,7.90
2012,09,24,07,41,7.90
2012,09,24,07,42,7.90
2012,09,24,07,43,7.90
2012,09,24,07,44,7.90
2012,09,24,07,45,7.90
2012,09,24,07,46,7.90
2012,09,24,07,47,8.00
2012,09,24,07,48,8.00
2012,09,24,07,49,8.00
2012,09,24,07,50,8.10
2012,09,24,07,51,8.10
2012,09,24,07,52,8.10
2012,09,24,07,53,8.10
2012,09,24,07,54,8.20
2012,09,24,07,55,8.20
2012,09,24,07,56,8.20
2012,09,24,07,57,8.20
2012,09,24,07,58,8.30
2012,09,24,07,59,8.40
2012,09,24,08,00,8.40
2012,09,24,08,01,8.50
2012,09,24,08,02,8.60
2012,09,24,08,03,8.70
2012,09,24,08,04,8.70
2012,09,24,08,05,8.80
2012,09,24,08,06,8.90
2012,09,24,08,07,8.90
2012,09,24,08,08,9.00
2012,09,24,08,09,9.00
2012,09,24,08,10,9.00
2012,09,24,08,11,9.10
2012,09,24,08,12,9.10
2012,09,24,08,13,9.20
2012,09,24,08,14,9.20
2012,09,24,08,15,9.20
2012,09,24,08,16,9.20
2012,09,24,08,17,9.30
2012,09,24,08,18,9.30
2012,09,24,08,19,9.30
2012,09,24,08,20,9.40
2012,09,24,08,21,9.40
2012,09,24,08,22,9.40
2012,09,24,08,23,9.40
2012,09,24,08,24,9.50
2012,09,24,08,25,9.50
2012,09,24,08,26,9.50
2012,09,24,08,27,9.50
2012,09,24,08,28,9.60
2012,09,24,08,29,9.60
2012,09,24,08,30,9.70
2012,09,24,08,31,9.70
2012,09,24,08,32,9.70
2012,09,24,08,33,9.80
2012,09,24,08,34,9.90
2012,09,24,08,35,10.00
2012,09,24,08,36,10.10
2012,09,24,08,37,10.20
2012,09,24,08,38,10.20
2012,09,24,08,39,10.30
2012,09,24,08,40,10.30
2012,09,24,08,41,10.40
2012,09,24,08,42,10.40
2012,09,24,08,43,10.40
2012,09,24,08,44,10.40
2012,09,24,08,45,10.40
2012,09,24,08,46,10.40
2012,09,24,08,47,10.40
2012,09,24,08,48,10.40
2012,09,24,08,49,10.60
2012,09,24,08,50,10.60
2012,09,24,08,51,10.60
2012,09,24,08,52,10.60
2012,09,24,08,53,10.60
2012,09,24,08,54,10.70
2012,09,24,08,55,10.70
2012,09,24,08,56,10.70
2012,09,24,08,57,10.70
2012,09,24,08,58,10.70
2012,09,24,08,59,10.70
2012,09,24,09,00,10.70
2012,09,24,09,01,10.70
2012,09,24,09,02,10.70
2012,09,24,09,03,10.60
2012,09,24,09,04,10.70
2012,09,24,09,05,10.80
2012,09,24,09,06,10.60
2012,09,24,09,07,10.30
2012,09,24,09,08,10.20
2012,09,24,09,09,10.10
2012,09,24,09,10,10.10
2012,09,24,09,11,10.00
2012,09,24,09,12,9.90
2012,09,24,09,13,9.90
2012,09,24,09,14,9.90
2012,09,24,09,15,9.90
2012,09,24,09,16,9.90
2012,09,24,09,17,9.90
2012,09,24,09,18,9.90
2012,09,24,09,19,9.90
2012,09,24,09,20,9.90
2012,09,24,09,21,9.90
2012,09,24,09,22,9.90
2012,09,24,09,23,10.10
2012,09,24,09,24,10.10
2012,09,24,09,25,10.10
2012,09,24,09,26,10.10
2012,09,24,09,27,10.20
2012,09,24,09,28,10.20
2012,09,24,09,29,10.30
2012,09,24,09,30,10.40
2012,09,24,09,31,10.40
2012,09,24,09,32,10.40
2012,09,24,09,33,10.40
2012,09,24,09,34,10.40
2012,09,24,09,35,10.50
2012,09,24,09,36,10.60
2012,09,24,09,37,10.60
2012,09,24,09,38,10.60
2012,09,24,09,39,10.70
2012,09,24,09,40,10.70
2012,09,24,09,41,10.80
2012,09,24,09,42,10.90
2012,09,24,09,43,11.00
2012,09,24,09,44,11.10
2012,09,24,09,45,11.10
2012,09,24,09,46,11.10
2012,09,24,09,47,11.10
2012,09,24,09,48,10.90
2012,09,24,09,49,10.90
2012,09,24,09,50,10.90
2012,09,24,09,51,10.80
2012,09,24,09,52,10.80
2012,09,24,09,53,10.70
2012,09,24,09,54,10.70
2012,09,24,09,55,10.70
2012,09,24,09,56,10.70
2012,09,24,09,57,10.70
2012,09,24,09,58,10.70
2012,09,24,09,59,10.80
2012,09,24,10,00,10.90
2012,09,24,10,01,10.90
2012,09,24,10,02,10.90
2012,09,24,10,03,10.90
2012,09,24,10,04,10.90
2012,09,24,10,05,10.90
2012,09,24,10,06,11.00
2012,09,24,10,07,11.10
2012,09,24,10,08,11.10
2012,09,24,10,09,11.10
2012,09,24,10,10,11.10
2012,09,24,10,11,11.10
2012,09,24,10,12,11.10
2012,09,24,10,13,11.20
2012,09,24,10,14,11.20
2012,09,24,10,15,11.30
2012,09,24,10,16,11.40
2012,09,24,10,17,11.40
2012,09,24,10,18,11.60
2012,09,24,10,19,11.60
2012,09,24,10,20,11.60
2012,09,24,10,21,11.70
2012,09,24,10,22,11.70
2012,09,24,10,23,11.80
2012,09,24,10,24,11.80
2012,09,24,10,25,11.80
2012,09,24,10,26,11.80
2012,09,24,10,27,11.70
2012,09,24,10,28,11.70
2012,09,24,10,29,11.70
2012,09,24,10,30,11.70
2012,09,24,10,31,11.70
2012,09,24,10,32,11.70
2012,09,24,10,33,11.70
2012,09,24,10,34,11.70
2012,09,24,10,35,11.60
2012,09,24,10,36,11.60
2012,09,24,10,37,11.60
2012,09,24,10,38,11.60
2012,09,24,10,39,11.60
2012,09,24,10,40,11.60
2012,09,24,10,41,11.60
2012,09,24,10,42,11.40
2012,09,24,10,43,11.40
2012,09,24,10,44,11.30
2012,09,24,10,45,11.40
2012,09,24,10,46,11.40
2012,09,24,10,47,11.40
2012,09,24,10,48,11.40
2012,09,24,10,49,11.40
2012,09,24,10,50,11.30
2012,09,24,10,51,11.30
2012,09,24,10,52,11.20
2012,09,24,10,53,11.20
2012,09,24,10,54,11.20
2012,09,24,10,55,11.30
2012,09,24,10,56,11.30
2012,09,24,10,57,11.30
2012,09,24,10,58,11.30
2012,09,24,10,59,11.40
2012,09,24,11,00,11.50
2012,09,24,11,01,11.60
2012,09,24,11,02,11.60
2012,09,24,11,03,11.40
2012,09,24,11,04,11.40
2012,09,24,11,05,11.40
2012,09,24,11,06,11.40
2012,09,24,11,07,11.40
2012,09,24,11,08,11.40
2012,09,24,11,09,11.50
2012,09,24,11,10,11.50
2012,09,24,11,11,11.40
2012,09,24,11,12,11.40
2012,09,24,11,13,11.40
2012,09,24,11,14,11.20
2012,09,24,11,15,11.10
2012,09,24,11,16,11.10
2012,09,24,11,17,11.00
2012,09,24,11,18,10.90
2012,09,24,11,19,10.90
2012,09,24,11,20,11.00
2012,09,24,11,21,11.10
2012,09,24,11,22,11.10
2012,09,24,11,23,11.10
2012,09,24,11,24,11.10
2012,09,24,11,25,11.10
2012,09,24,11,26,11.10
2012,09,24,11,27,11.10
2012,09,24,11,28,11.10
2012,09,24,11,29,11.10
2012,09,24,11,30,11.20
2012,09,24,11,31,11.20
2012,09,24,11,32,11.20
2012,09,24,11,33,11.20
2012,09,24,11,34,11.20
2012,09,24,11,35,11.20
2012,09,24,11,36,11.20
2012,09,24,11,37,11.20
2012,09,24,11,38,11.20
2012,09,24,11,39,11.30
2012,09,24,11,40,11.30
2012,09,24,11,41,11.30
2012,09,24,11,42,11.30
2012,09,24,11,43,11.30
2012,09,24,11,44,11.30
2012,09,24,11,45,11.30
2012,09,24,11,46,11.30
2012,09,24,11,47,11.30
2012,09,24,11,48,11.20
2012,09,24,11,49,11.20
2012,09,24,11,50,11.20
2012,09,24,11,51,11.20
2012,09,24,11,52,11.20
2012,09,24,11,53,11.30
2012,09,24,11,54,11.40
2012,09,24,11,55,11.60
2012,09,24,11,56,11.70
2012,09,24,11,57,11.80
2012,09,24,11,58,11.80
2012,09,24,11,59,11.90
2012,09,24,12,00,12.00
2012,09,24,12,01,12.00
2012,09,24,12,02,12.10
2012,09,24,12,03,12.10
2012,09,24,12,04,12.10
2012,09,24,12,05,12.10
2012,09,24,12,06,12.10
2012,09,24,12,07,12.10
2012,09,24,12,08,12.10
2012,09,24,12,09,12.10
2012,09,24,12,10,12.00
2012,09,24,12,11,12.00
2012,09,24,12,12,12.00
2012,09,24,12,13,11.90
2012,09,24,12,14,11.90
2012,09,24,12,15,11.90
2012,09,24,12,16,12.00
2012,09,24,12,17,12.00
2012,09,24,12,18,12.10
2012,09,24,12,19,12.10
2012,09,24,12,20,12.20
2012,09,24,12,21,12.30
2012,09,24,12,22,12.30
2012,09,24,12,23,12.30
2012,09,24,12,24,12.40
2012,09,24,12,25,12.50
2012,09,24,12,26,12.60
2012,09,24,12,27,12.70
2012,09,24,12,28,12.80
2012,09,24,12,29,12.80
2012,09,24,12,30,12.90
2012,09,24,12,31,12.90
2012,09,24,12,32,12.90
2012,09,24,12,33,13.00
2012,09,24,12,34,13.00
2012,09,24,12,35,13.10
2012,09,24,12,36,13.30
2012,09,24,12,37,13.30
2012,09,24,12,38,13.40
2012,09,24,12,39,13.50
2012,09,24,12,40,13.60
2012,09,24,12,41,13.60
2012,09,24,12,42,13.60
2012,09,24,12,43,13.60
2012,09,24,12,44,13.60
2012,09,24,12,45,13.70
2012,09,24,12,46,13.70
2012,09,24,12,47,13.70
2012,09,24,12,48,13.80
2012,09,24,12,49,13.80
2012,09,24,12,50,13.80
2012,09,24,12,51,13.80
2012,09,24,12,52,13.80
2012,09,24,12,53,13.80
2012,09,24,12,54,13.80
2012,09,24,12,55,13.90
2012,09,24,12,56,14.00
2012,09,24,12,57,14.00
2012,09,24,12,58,14.20
2012,09,24,12,59,14.20
2012,09,24,13,00,14.30
2012,09,24,13,01,14.40
2012,09,24,13,02,14.50
2012,09,24,13,03,14.60
2012,09,24,13,04,14.60
2012,09,24,13,05,14.50
2012,09,24,13,06,14.50
2012,09,24,13,07,14.60
2012,09,24,13,08,14.50
2012,09,24,13,09,14.40
2012,09,24,13,10,14.40
2012,09,24,13,11,14.40
2012,09,24,13,12,14.40
2012,09,24,13,13,14.50
2012,09,24,13,14,14.50
2012,09,24,13,15,14.50
2012,09,24,13,16,14.60
2012,09,24,13,17,14.70
2012,09,24,13,18,14.80
2012,09,24,13,19,14.90
2012,09,24,13,20,15.00
2012,09,24,13,21,15.20
2012,09,24,13,22,15.30
2012,09,24,13,23,15.30
2012,09,24,13,24,15.40
2012,09,24,13,25,15.40
2012,09,24,13,26,15.30
2012,09,24,13,27,15.30
2012,09,24,13,28,15.40
2012,09,24,13,29,15.50
2012,09,24,13,30,15.60
2012,09,24,13,31,15.70
2012,09,24,13,32,15.70
2012,09,24,13,33,15.80
2012,09,24,13,34,15.80
2012,09,24,13,35,15.80
2012,09,24,13,36,15.80
2012,09,24,13,37,15.80
2012,09,24,13,38,15.80
2012,09,24,13,39,15.80
2012,09,24,13,40,15.90
2012,09,24,13,41,16.00
2012,09,24,13,42,16.10
2012,09,24,13,43,16.10
2012,09,24,13,44,16.10
2012,09,24,13,45,16.10
2012,09,24,13,46,16.10
2012,09,24,13,47,16.10
2012,09,24,13,48,16.20
2012,09,24,13,49,16.20
2012,09,24,13,50,16.20
2012,09,24,13,51,16.20
2012,09,24,13,52,16.30
2012,09,24,13,53,16.30
2012,09,24,13,54,16.40
2012,09,24,13,55,16.40
2012,09,24,13,56,16.40
2012,09,24,13,57,16.40
2012,09,24,13,58,16.60
2012,09,24,13,59,16.70
2012,09,24,14,00,16.90
2012,09,24,14,01,16.90
2012,09,24,14,02,17.00
2012,09,24,14,03,17.00
2012,09,24,14,04,17.00
2012,09,24,14,05,16.90
2012,09,24,14,06,16.90
2012,09,24,14,07,16.80
2012,09,24,14,08,16.70
2012,09,24,14,09,16.60
2012,09,24,14,10,16.60
2012,09,24,14,11,16.70
2012,09,24,14,12,16.70
2012,09,24,14,13,16.80
2012,09,24,14,14,16.80
2012,09,24,14,15,16.90
2012,09,24,14,16,16.90
2012,09,24,14,17,16.90
2012,09,24,14,18,17.00
2012,09,24,14,19,17.00
2012,09,24,14,20,17.00
2012,09,24,14,21,17.00
2012,09,24,14,22,16.90
2012,09,24,14,23,16.80
2012,09,24,14,24,16.70
2012,09,24,14,25,16.70
2012,09,24,14,26,16.60
2012,09,24,14,27,16.60
2012,09,24,14,28,16.60
2012,09,24,14,29,16.60
2012,09,24,14,30,16.60
2012,09,24,14,31,16.60
2012,09,24,14,32,16.60
2012,09,24,14,33,16.50
2012,09,24,14,34,16.40
2012,09,24,14,35,16.40
2012,09,24,14,36,16.40
2012,09,24,14,37,16.30
2012,09,24,14,38,16.40
2012,09,24,14,39,16.40
2012,09,24,14,40,16.40
2012,09,24,14,41,16.30
2012,09,24,14,42,16.30
2012,09,24,14,43,16.20
2012,09,24,14,44,16.20
2012,09,24,14,45,16.20
2012,09,24,14,46,16.20
2012,09,24,14,47,16.20
2012,09,24,14,48,16.30
2012,09,24,14,49,16.30
2012,09,24,14,50,16.30
2012,09,24,14,51,16.30
2012,09,24,14,52,16.40
2012,09,24,14,53,16.40
2012,09,24,14,54,16.30
2012,09,24,14,55,16.30
2012,09,24,14,56,16.30
2012,09,24,14,57,16.30
2012,09,24,14,58,16.30
2012,09,24,14,59,16.30
2012,09,24,15,00,16.30
2012,09,24,15,01,16.20
2012,09,24,15,02,16.20
2012,09,24,15,03,16.20
2012,09,24,15,04,16.10
2012,09,24,15,05,16.10
2012,09,24,15,06,16.00
2012,09,24,15,07,15.90
2012,09,24,15,08,15.80
2012,09,24,15,09,15.90
2012,09,24,15,10,15.90
2012,09,24,15,11,16.10
2012,09,24,15,12,16.10
2012,09,24,15,13,16.10
2012,09,24,15,14,16.20
2012,09,24,15,15,16.20
2012,09,24,15,16,16.30
2012,09,24,15,17,16.30
2012,09,24,15,18,16.40
2012,09,24,15,19,16.40
2012,09,24,15,20,16.40
2012,09,24,15,21,16.40
2012,09,24,15,22,16.40
2012,09,24,15,23,16.40
2012,09,24,15,24,16.40
2012,09,24,15,25,16.60
2012,09,24,15,26,16.60
2012,09,24,15,27,16.60
2012,09,24,15,28,16.70
2012,09,24,15,29,16.60
2012,09,24,15,30,16.60
2012,09,24,15,31,16.60
2012,09,24,15,32,16.60
2012,09,24,15,33,16.50
2012,09,24,15,34,16.40
2012,09,24,15,35,16.50
2012,09,24,15,36,16.50
2012,09,24,15,37,16.40
2012,09,24,15,38,16.40
2012,09,24,15,39,16.40
2012,09,24,15,40,16.40
2012,09,24,15,41,16.30
2012,09,24,15,42,16.30
2012,09,24,15,43,16.30
2012,09,24,15,44,16.30
2012,09,24,15,45,16.30
2012,09,24,15,46,16.30
2012,09,24,15,47,16.30
2012,09,24,15,48,16.30
2012,09,24,15,49,16.20
2012,09,24,15,50,16.20
2012,09,24,15,51,16.20
2012,09,24,15,52,16.20
2012,09,24,15,53,16.20
2012,09,24,15,54,16.20
2012,09,24,15,55,16.20
2012,09,24,15,56,16.20
2012,09,24,15,57,16.20
2012,09,24,15,58,16.20
2012,09,24,15,59,16.20
2012,09,24,16,00,16.30
2012,09,24,16,01,16.30
2012,09,24,16,02,16.30
2012,09,24,16,03,16.40
2012,09,24,16,04,16.40
2012,09,24,16,05,16.60
2012,09,24,16,06,16.70
2012,09,24,16,07,16.80
2012,09,24,16,08,16.80
2012,09,24,16,09,16.80
2012,09,24,16,10,16.80
2012,09,24,16,11,16.70
2012,09,24,16,12,16.70
2012,09,24,16,13,16.70
2012,09,24,16,14,16.70
2012,09,24,16,15,16.70
2012,09,24,16,16,16.70
2012,09,24,16,17,16.70
2012,09,24,16,18,16.70
2012,09,24,16,19,16.70
2012,09,24,16,20,16.80
2012,09,24,16,21,16.80
2012,09,24,16,22,16.80
2012,09,24,16,23,16.80
2012,09,24,16,24,16.70
2012,09,24,16,25,16.70
2012,09,24,16,26,16.70
2012,09,24,16,27,16.60
2012,09,24,16,28,16.50
2012,09,24,16,29,16.40
2012,09,24,16,30,16.40
2012,09,24,16,31,16.30
2012,09,24,16,32,16.20
2012,09,24,16,33,16.10
2012,09,24,16,34,16.10
2012,09,24,16,35,16.10
2012,09,24,16,36,16.10
2012,09,24,16,37,16.10
2012,09,24,16,38,16.00
2012,09,24,16,39,16.00
2012,09,24,16,40,15.90
2012,09,24,16,41,15.90
2012,09,24,16,42,15.80
2012,09,24,16,43,15.80
2012,09,24,16,44,15.80
2012,09,24,16,45,15.80
2012,09,24,16,46,15.80
2012,09,24,16,47,15.80
2012,09,24,16,48,15.90
2012,09,24,16,49,15.90
2012,09,24,16,50,15.90
2012,09,24,16,51,15.90
2012,09,24,16,52,16.10
2012,09,24,16,53,16.10
2012,09,24,16,54,16.10
2012,09,24,16,55,16.10
2012,09,24,16,56,16.10
2012,09,24,16,57,16.10
2012,09,24,16,58,16.10
2012,09,24,16,59,16.10
2012,09,24,17,00,16.10
2012,09,24,17,01,16.00
2012,09,24,17,02,15.90
2012,09,24,17,03,15.90
2012,09,24,17,04,15.90
2012,09,24,17,05,15.90
2012,09,24,17,06,15.90
2012,09,24,17,07,15.90
2012,09,24,17,08,15.90
2012,09,24,17,09,15.80
2012,09,24,17,10,15.80
2012,09,24,17,11,15.80
2012,09,24,17,12,15.80
2012,09,24,17,13,15.80
2012,09,24,17,14,15.80
2012,09,24,17,15,15.80
2012,09,24,17,16,15.80
2012,09,24,17,17,15.80
2012,09,24,17,18,15.80
2012,09,24,17,19,15.80
2012,09,24,17,20,15.80
2012,09,24,17,21,15.80
2012,09,24,17,22,15.80
2012,09,24,17,23,15.80
2012,09,24,17,24,15.80
2012,09,24,17,25,15.80
2012,09,24,17,26,15.70
2012,09,24,17,27,15.70
2012,09,24,17,28,15.60
2012,09,24,17,29,15.60
2012,09,24,17,30,15.60
2012,09,24,17,31,15.50
2012,09,24,17,32,15.50
2012,09,24,17,33,15.50
2012,09,24,17,34,15.40
2012,09,24,17,35,15.40
2012,09,24,17,36,15.40
2012,09,24,17,37,15.40
2012,09,24,17,38,15.30
2012,09,24,17,39,15.30
2012,09,24,17,40,15.30
2012,09,24,17,41,15.40
2012,09,24,17,42,15.40